Starlink 33813

operational
NORAD ID: 63585 Int'l Des: 2025-076 Owner: SPXS Country: US Constellation: starlink
LEOCIRCULAR

About Starlink 33813

Description loading...

Live Position

Loading 3D Globe...

Upcoming Passes

Altitude History

Altitude vs Time

uPlot chart will show altitude changes over time

Two-Line Element Set

1 63585U 25076S 25258.37736746 .00059159 00000-0 21395-2 0 9993
2 63585 43.0005 231.3342 0000929 275.6192 84.4554 15.27619874 25020
Epoch: Sep 15, 2025 • Age: 13 hours

Current Status

Altitude 482.0 km
Velocity 7.63 km/s
Sub-Earth Point 8.29°N, 69.02°E
Launch Date Apr 14, 2025
Age 0.4 years
Type internet

Technical Details

Classification Payload
Mass 575.00 kg
Dry Mass 530.00 kg
Total Mass 575.00 kg
Length 0.30 m
Diameter 4.10 m
Span 29.00 m
Shape Box + pan
Manufacturer SPXS
Bus Type Starlink V2MO
Phase Status In Orbit
Owner/State SPXS/US

Large Constellations

Loading constellations...